This is the latest recevied weather packets stored in our database for station/object KC1OHT-13. If no packets are shown the sender has not sent any weather packets the latest 1 day(s).
| Time | Temp. | Humidity | Pressure | Rain* | Wind** | Luminosity | Snow |
|---|---|---|---|---|---|---|---|
| 1778047683 | 15.56° C | 77% | 1007.8 hPa | 0 mm | 0.89 m/s, 198° | 0 W/m² | - |
| 1778047381 | 15.56° C | 77% | 1007.8 hPa | 0 mm | 0.89 m/s, 54° | 0 W/m² | - |
| 1778047077 | 15.56° C | 77% | 1007.8 hPa | 0 mm | 2.68 m/s, 182° | 0 W/m² | - |
| 1778046774 | 15.56° C | 77% | 1007.9 hPa | 0 mm | 0.45 m/s, 80° | 0 W/m² | - |
| 1778046471 | 15.56° C | 77% | 1007.9 hPa | 0 mm | 1.34 m/s, 133° | 0 W/m² | - |
| 1778046168 | 15.56° C | 77% | 1007.8 hPa | 0 mm | 1.34 m/s, 85° | 0 W/m² | - |
| 1778045864 | 15° C | 77% | 1007.9 hPa | 0 mm | 1.34 m/s, 165° | 0 W/m² | - |
| 1778045563 | 15° C | 77% | 1008 hPa | 0 mm | 0.89 m/s, 133° | 0 W/m² | - |
| 1778045260 | 15° C | 77% | 1008.1 hPa | 0 mm | 1.79 m/s, 170° | 0 W/m² | - |
| 1778044959 | 15.56° C | 76% | 1008.1 hPa | 0 mm | 0.89 m/s, 21° | 0 W/m² | - |
| 1778044656 | 15.56° C | 75% | 1008 hPa | 0 mm | 1.79 m/s, 122° | 0 W/m² | - |
| 1778044352 | 15.56° C | 74% | 1008.2 hPa | 0 mm | 1.79 m/s, 181° | 0 W/m² | - |
| 1778044050 | 15.56° C | 74% | 1008.2 hPa | 0 mm | 1.79 m/s, 179° | 0 W/m² | - |
| 1778043747 | 15.56° C | 73% | 1008.5 hPa | 0 mm | 0.45 m/s, 66° | 0 W/m² | - |
| 1778043444 | 16.11° C | 73% | 1008.4 hPa | 0 mm | 0.89 m/s, 232° | 0 W/m² | - |
| 1778043140 | 15.56° C | 73% | 1008.4 hPa | 0 mm | 1.79 m/s, 233° | 0 W/m² | - |
| 1778042838 | 16.11° C | 72% | 1008.3 hPa | 0 mm | 1.79 m/s, 124° | 0 W/m² | - |
| 1778042535 | 16.11° C | 72% | 1008.4 hPa | 0 mm | 1.34 m/s, 89° | 0 W/m² | - |
| 1778042233 | 15.56° C | 72% | 1008.2 hPa | 0 mm | 0.45 m/s, 149° | 0 W/m² | - |
| 1778041930 | 15.56° C | 73% | 1008.4 hPa | 0 mm | 0.89 m/s, 175° | 0 W/m² | - |
| 1778041629 | 15.56° C | 72% | 1008.3 hPa | 0 mm | 2.68 m/s, 174° | 0 W/m² | - |
| 1778041327 | 16.11° C | 71% | 1008.4 hPa | 0 mm | 1.34 m/s, 79° | 0 W/m² | - |
| 1778041025 | 16.11° C | 71% | 1008.4 hPa | 0 mm | 0.45 m/s, 355° | 0 W/m² | - |
| 1778040721 | 15.56° C | 72% | 1008.3 hPa | 0 mm | 0.89 m/s, 71° | 0 W/m² | - |
| 1778040419 | 15.56° C | 72% | 1008.3 hPa | 0 mm | 0.89 m/s, 128° | 0 W/m² | - |
* Rain latest hour (hover to see other rain measurements)
** Current wind speed in m/s (hover to see current wind gust speed)